[[{"header":{"parameterUnit":"m.s-1","parameterCategory":1,"la1":30.2991,"la2":30.254,"lo1":-89.0895,"lo2":-89.0444,"dy":0.0017,"dx":0.0017,"nx":28,"ny":28,"refTime":"2025-05-14T21:00:00:Z","depth":0,"parameterNumber":2,"parameterNumberName":"U-component_of_WINDS"},"data":[0,0,0,0,0,0,0,0,0,0,0,0,0,0,0,0,0,0,0,0,0,0,0,0,0,0,0,0,0,0,0,0,0,0,0,0,0,0,0,0,0,0,0,0,0,0,0,0,0,0,0,0,0,0,0,0,0,0,0.33,0.3301,0,0.341,0.3411,0.3413,0.3433,0.3432,0.3431,0.343,0.3546,0.3549,0.3553,0,0,0,0,0,0,0,0,0,0,0,0,0,0.3109,0.3112,0.33,0.3301,0.3303,0.341,0.3412,0.3413,0.3433,0.3432,0.3431,0.343,0.3544,0.3549,0.3554,0,0,0,0,0,0,0,0,0,0,0,0,0,0.3203,0.3113,0.33,0.3325,0.3329,0.341,0.3412,0.3413,0.3433,0.3432,0.343,0.3429,0.3543,0.3548,0.3554,0.3618,0,0,0.3572,0.3575,0,0,0,0,0,0,0,0,0.3197,0.321,0.332,0.3324,0.3328,0.3406,0.3387,0.3482,0.3433,0.3394,0.343,0.3428,0.3501,0.351,0.3534,0.3623,0.3628,0.3573,0.3576,0.3579,0.3581,0,0,0,0,0,0,0,0.3191,0.3205,0.3344,0.3322,0.3326,0.3332,0.3344,0.3405,0.3454,0.3397,0.3399,0.3411,0.3502,0.3528,0.3536,0.363,0.3573,0.3578,0.3582,0.3584,0.3779,0.3781,0,0,0,0,0,0,0.318,0.32,0.334,0.3347,0.3258,0.3337,0.335,0.3383,0.3453,0.3462,0.3412,0.3412,0.3518,0.353,0.3541,0.3621,0.3579,0.3584,0.3588,0.3777,0.3779,0.3781,0,0,0,0,0,0,0.3175,0.3192,0.3336,0.3274,0.3293,0.3342,0.3378,0.3385,0.3411,0.3464,0.3473,0.3429,0.3518,0.3532,0.3599,0.3625,0.3587,0.3592,0.3775,0.3778,0.378,0.3782,0,0,0,0,0,0,0.317,0.319,0.3214,0.3274,0.3296,0.3391,0.3379,0.3389,0.3421,0.3421,0.3483,0.3492,0.3518,0.359,0.3605,0.3633,0.3597,0.3773,0.3777,0.3779,0.378,0.3784,0.3788,0,0,0,0,0,0.3163,0.3211,0.3216,0.3232,0.3327,0.3393,0.3405,0.3434,0.3423,0.3448,0.3482,0.349,0.3619,0.3596,0.3613,0.3644,0.3772,0.3776,0.3779,0.3778,0.3783,0.3788,0,0,0,0,0,0,0.3154,0.3219,0.3225,0.3294,0.3337,0.3396,0.3429,0.3438,0.3487,0.3485,0.3519,0.3532,0.3597,0.3627,0.36,0.3709,0.3695,0.3702,0.3688,0.3694,0.3698,0.3691,0.3602,0,0,0,0,0,0.316,0.3207,0.3262,0.3317,0.3339,0.338,0.3409,0.3427,0.3474,0.3493,0.3533,0.3579,0.363,0.3663,0.3713,0.3783,0.3798,0.3812,0.3816,0.3819,0.3826,0.3867,0.3875,0.3793,0.3793,0.3793,0,0,0.3173,0.3214,0.3242,0.3316,0.3352,0.3402,0.3395,0.3447,0.3485,0.3502,0.3567,0.3597,0.3651,0.372,0.3752,0.3746,0.3851,0.3824,0.3826,0.3832,0.3872,0.3879,0.3886,0.3796,0.3795,0.3795,0,0,0.3222,0.3257,0.3308,0.3344,0.3398,0.3425,0.3437,0.3494,0.3515,0.3581,0.3595,0.3639,0.3726,0.3765,0.3795,0.3858,0.3868,0.3873,0.3896,0.3935,0.3941,0.3947,0.3972,0.398,0.3879,0.3879,0.3879,0,0.3232,0.3306,0.3333,0.3385,0.3418,0.3434,0.3486,0.352,0.3588,0.361,0.3602,0.3712,0.375,0.3828,0.3843,0.3867,0.3883,0.3868,0.3938,0.3944,0.395,0.3974,0.3983,0.388,0.388,0.388,0.388,0,0.3316,0.3367,0.3402,0.3467,0.3503,0.3555,0.359,0.3624,0.3638,0.3666,0.3733,0.3778,0.3838,0.3857,0.3872,0.3938,0.3933,0.3931,0.3918,0.3958,0.3981,0.399,0.3881,0.388,0.388,0.388,0,0,0.3366,0.3444,0.3456,0.3486,0.3547,0.3587,0.3639,0.3697,0.3726,0.3772,0.3818,0.3891,0.3889,0.3924,0.3943,0.3977,0.4026,0.3971,0.3973,0.3982,0.4104,0.4107,0.4117,0.4031,0.4033,0.4034,0.41,0,0.3424,0.3518,0.3543,0.3623,0.3672,0.3687,0.3733,0.3775,0.3802,0.3848,0.3878,0.393,0.3923,0.3944,0.3978,0.4013,0.4051,0.4008,0.4076,0.4078,0.4065,0.4128,0.4132,0.4192,0.4109,0.4111,0.4112,0,0.3505,0.3552,0.3637,0.3691,0.3713,0.3753,0.3809,0.3851,0.39,0.3917,0.3956,0.3971,0.4028,0.4009,0.4088,0.4058,0.4087,0.4108,0.4111,0.412,0.4099,0.4142,0.4211,0.4221,0.4126,0.4124,0.4123,0,0.3535,0.3619,0.3681,0.3706,0.3771,0.3799,0.3828,0.3875,0.3908,0.3956,0.3978,0.4032,0.4063,0.4104,0.4135,0.4118,0.4212,0.4195,0.4229,0.4229,0.4251,0.4249,0.4328,0.4265,0.4265,0.4265,0.4264,0,0.3599,0.3651,0.3695,0.3734,0.3792,0.3821,0.3878,0.3908,0.3949,0.3994,0.401,0.4052,0.4088,0.4135,0.4159,0.4221,0.4234,0.4251,0.4258,0.4251,0.425,0.4273,0.4271,0.4267,0.4266,0.4266,0.4266,0,0.3643,0.3675,0.3744,0.3799,0.3814,0.3855,0.3903,0.3941,0.3968,0.4025,0.404,0.4083,0.4139,0.4172,0.4243,0.4259,0.433,0.4333,0.4313,0.4317,0.435,0.4347,0.4448,0.4464,0.4388,0.4389,0.4389,0,0.3683,0.3723,0.3783,0.3814,0.3842,0.3892,0.3926,0.3955,0.399,0.4048,0.4079,0.4136,0.4184,0.4273,0.4311,0.4366,0.4372,0.4403,0.438,0.4373,0.4375,0.4373,0.4378,0.4408,0.4409,0.4409,0.441,0,0.3751,0.3765,0.3813,0.3866,0.3906,0.395,0.3993,0.4017,0.4054,0.4092,0.415,0.4186,0.4258,0.4315,0.4373,0.4403,0.4414,0.4416,0.4427,0.4423,0.4411,0.442,0.4327,0.4415,0.4414,0.4414,0.4413,0.4413,0.3797,0.3834,0.3881,0.3934,0.3969,0.401,0.4049,0.408,0.4128,0.4189,0.4203,0.4264,0.4311,0.439,0.4421,0.447,0.4465,0.4481,0.4485,0.4489,0.4491,0.4401,0.448,0.448,0.448,0.448,0.448,0,0.3868,0.3899,0.3947,0.4007,0.4049,0.4052,0.4101,0.4136,0.4189,0.4232,0.4278,0.4344,0.4399,0.4441,0.4498,0.4529,0.4535,0.4543,0.4542,0.4549,0.4491,0.4477,0.4537,0.4537,0.4537,0.4537,0.4537,0.4537,0.391,0.3973,0.3992,0.4073,0.4104,0.4163,0.419,0.4228,0.4263,0.4336,0.4381,0.4408,0.4451,0.4511,0.4562,0.4573,0.4594,0.4602,0.4614,0.4559,0.4553,0.4548,0.4534,0.4605,0.4605,0.4668,0.4669,0.4669]},{"header":{"parameterUnit":"m.s-1","parameterCategory":1,"la1":30.2991,"la2":30.254,"lo1":-89.0895,"lo2":-89.0444,"dy":0.0017,"dx":0.0017,"nx":28,"ny":28,"refTime":"2025-05-14T21:00:00:Z","depth":0,"parameterNumber":3,"parameterNumberName":"V-component_of_WINDS"},"data":[0,0,0,0,0,0,0,0,0,0,0,0,0,0,0,0,0,0,0,0,0,0,0,0,0,0,0,0,0,0,0,0,0,0,0,0,0,0,0,0,0,0,0,0,0,0,0,0,0,0,0,0,0,0,0,0,0,0,4.0244,4.0244,0,4.0235,4.0235,4.0235,4.0202,4.0201,4.02,4.0199,4.0187,4.0187,4.0187,0,0,0,0,0,0,0,0,0,0,0,0,0,4.023,4.0231,4.0244,4.0244,4.0244,4.0235,4.0235,4.0235,4.0202,4.0201,4.02,4.0199,4.0186,4.0187,4.0187,0,0,0,0,0,0,0,0,0,0,0,0,0,4.023,4.0231,4.0244,4.0226,4.0225,4.0235,4.0235,4.0235,4.0202,4.0201,4.02,4.0199,4.0186,4.0187,4.0187,4.0213,0,0,4.0189,4.0189,0,0,0,0,0,0,0,0,4.023,4.0231,4.0229,4.0228,4.0226,4.0218,4.0226,4.0228,4.0202,4.021,4.0199,4.0198,4.0198,4.0197,4.0198,4.0213,4.0212,4.0189,4.0189,4.019,4.019,0,0,0,0,0,0,0,4.023,4.0231,4.0241,4.0229,4.0227,4.0218,4.0217,4.0226,4.021,4.021,4.0207,4.0207,4.0197,4.0198,4.0198,4.0212,4.0189,4.019,4.019,4.019,4.025,4.0251,0,0,0,0,0,0,4.0233,4.0231,4.0241,4.024,4.0226,4.0219,4.0218,4.0222,4.021,4.0208,4.0208,4.0205,4.0197,4.0197,4.0197,4.0229,4.019,4.019,4.0191,4.0249,4.0251,4.0252,0,0,0,0,0,0,4.0233,4.0235,4.0241,4.0235,4.0235,4.0221,4.0225,4.0222,4.0223,4.0209,4.0206,4.0212,4.0196,4.0196,4.021,4.0228,4.019,4.0191,4.0248,4.0249,4.0251,4.0291,0,0,0,0,0,0,4.0233,4.0235,4.0245,4.0236,4.0236,4.0256,4.0226,4.0223,4.0225,4.0221,4.0212,4.0209,4.0195,4.021,4.0211,4.0228,4.0191,4.0246,4.0248,4.0251,4.0289,4.0294,4.03,0,0,0,0,0,4.0233,4.0255,4.0245,4.0247,4.0248,4.0257,4.0257,4.0241,4.0226,4.0236,4.0227,4.0209,4.0225,4.0212,4.0213,4.023,4.0245,4.0248,4.025,4.0286,4.0293,4.0299,0,0,0,0,0,0,4.0265,4.0253,4.0243,4.0263,4.0261,4.0251,4.0263,4.0249,4.0251,4.0247,4.0227,4.0225,4.0243,4.0237,4.0222,4.0256,4.0232,4.0235,4.0259,4.0266,4.0271,4.0273,4.0192,0,0,0,0,0,4.0274,4.0283,4.0272,4.0291,4.0291,4.0278,4.028,4.0269,4.0266,4.0265,4.0257,4.0253,4.0258,4.0261,4.0264,4.0287,4.0286,4.03,4.0305,4.031,4.0313,4.0327,4.0334,4.0261,4.0261,4.0261,0,0,4.0294,4.0289,4.0295,4.0298,4.0295,4.0304,4.0277,4.0287,4.0294,4.0266,4.028,4.0274,4.0269,4.0289,4.0296,4.0284,4.0333,4.0313,4.0317,4.0318,4.0331,4.0338,4.0344,4.0263,4.0263,4.0263,0,0,4.0335,4.0331,4.0348,4.0347,4.0344,4.0335,4.0339,4.0331,4.0327,4.0341,4.0321,4.0328,4.0336,4.0334,4.0334,4.0377,4.0361,4.0378,4.0408,4.0421,4.0427,4.0432,4.045,4.0456,4.0381,4.0381,4.0381,0,4.0359,4.0374,4.0358,4.0371,4.0373,4.035,4.0367,4.0366,4.0364,4.0366,4.0352,4.0363,4.0358,4.0378,4.0389,4.0389,4.0394,4.038,4.0428,4.0433,4.0437,4.0453,4.046,4.0384,4.0383,4.0383,4.0383,0,4.0405,4.0415,4.0429,4.043,4.0433,4.0448,4.0435,4.044,4.0429,4.0421,4.0437,4.043,4.0433,4.0436,4.0424,4.0455,4.0448,4.0431,4.0408,4.0447,4.0462,4.0468,4.0387,4.0386,4.0385,4.0385,0,0,4.0465,4.046,4.0465,4.0466,4.0462,4.0469,4.0483,4.0488,4.0494,4.0493,4.0505,4.0513,4.0499,4.0499,4.0486,4.0498,4.0536,4.048,4.048,4.0493,4.0572,4.0586,4.0593,4.0525,4.0526,4.0527,4.0573,0,4.0506,4.0531,4.0519,4.0546,4.0556,4.0535,4.0547,4.0546,4.054,4.0547,4.0539,4.0546,4.0525,4.0526,4.0537,4.0529,4.0551,4.0525,4.0536,4.0537,4.054,4.06,4.0615,4.0658,4.0578,4.0579,4.058,0,4.0557,4.0562,4.059,4.0587,4.059,4.0602,4.0606,4.0613,4.0612,4.0606,4.0608,4.0593,4.0607,4.0583,4.0602,4.0584,4.0588,4.0585,4.0586,4.0588,4.0562,4.0605,4.0672,4.0679,4.0588,4.0588,4.0587,0,4.0601,4.0614,4.0633,4.0635,4.063,4.064,4.0638,4.0635,4.064,4.0643,4.0646,4.0649,4.0652,4.0655,4.0642,4.0626,4.0664,4.0638,4.066,4.0661,4.067,4.067,4.074,4.067,4.067,4.067,4.067,0,4.0649,4.0668,4.0654,4.0666,4.0686,4.0672,4.0692,4.0688,4.0686,4.0697,4.0678,4.0688,4.067,4.0679,4.0668,4.0687,4.0687,4.0684,4.0681,4.0687,4.0687,4.069,4.0687,4.0671,4.0671,4.0671,4.067,0,4.0702,4.0693,4.0714,4.0709,4.0708,4.0724,4.072,4.0731,4.0724,4.0738,4.074,4.0729,4.0738,4.0725,4.0732,4.0726,4.0752,4.0743,4.0753,4.0752,4.0776,4.0774,4.0851,4.0861,4.0783,4.0783,4.0784,0,4.0735,4.0749,4.0747,4.0754,4.0754,4.0765,4.077,4.0756,4.0762,4.0763,4.0774,4.0782,4.0788,4.0804,4.0796,4.0802,4.0795,4.0821,4.0795,4.0801,4.0798,4.0798,4.08,4.0827,4.0828,4.0828,4.0829,0,4.0793,4.0789,4.0798,4.0806,4.0813,4.0818,4.0821,4.0827,4.0813,4.0821,4.0831,4.0836,4.0845,4.0854,4.0858,4.0856,4.0841,4.0837,4.0843,4.085,4.0856,4.0855,4.077,4.0836,4.0835,4.0834,4.0834,4.0834,4.0838,4.0851,4.0853,4.0864,4.0865,4.087,4.0881,4.0876,4.0885,4.0893,4.0883,4.0897,4.0896,4.0901,4.0901,4.0911,4.0899,4.0907,4.091,4.0912,4.0917,4.0853,4.0911,4.0911,4.0911,4.0911,4.091,0,4.0898,4.0899,4.0909,4.0916,4.0925,4.0911,4.0915,4.0923,4.0936,4.0937,4.0944,4.0957,4.0966,4.096,4.0967,4.0977,4.097,4.0979,4.0979,4.098,4.0926,4.0921,4.0985,4.0985,4.0985,4.0985,4.0985,4.0985,4.093,4.0953,4.0949,4.0972,4.0971,4.0986,4.099,4.0994,4.0995,4.1012,4.102,4.1016,4.1014,4.1022,4.103,4.1028,4.1032,4.1044,4.104,4.099,4.0983,4.0976,4.0972,4.1045,4.1045,4.1093,4.1094,4.1094]}]]